Location: Sevilla
(37.3933°N, 5.9839°W)
Time: 00:33:04
(UTC+02:00)

S-56A Canister/Altair - All Passes

Search period start: 16 June 2024 00:00
Search period end: 26 June 2024 00:00
Orbit: 637 x 2489 km, 38.9° (Epoch: 14 June)

Date Brightness Start Highest point End Pass type
(mag) Time Alt. Az. Time Alt. Az. Time Alt. Az.
16 Jun - 01:10:03 10° WSW 01:21:03 76° SSE 01:35:52 10° ENE visible
16 Jun - 03:14:47 10° W 03:27:58 84° N 03:43:16 10° E visible
16 Jun - 05:20:44 10° WNW 05:35:27 83° SSW 05:49:46 10° ESE visible
16 Jun - 07:27:34 10° WNW 07:41:28 46° SW 07:53:25 10° SSE daylight
16 Jun - 09:39:12 10° W 09:45:06 14° WSW 09:50:30 10° SSW daylight
16 Jun - 22:35:18 10° S 22:42:46 29° SE 22:52:41 10° E visible
17 Jun - 00:36:30 10° SW 00:46:47 71° SSE 01:01:08 10° ENE visible
17 Jun - 02:40:49 10° W 02:53:20 85° N 03:08:41 10° E visible
17 Jun - 04:46:29 10° WNW 05:00:49 86° SSW 05:15:34 10° ESE visible
17 Jun - 06:52:58 10° WNW 07:07:10 52° SW 07:19:50 10° SE daylight
17 Jun - 09:02:59 10° W 09:11:14 18° SW 09:18:40 10° SSW daylight
17 Jun - 22:02:38 10° S 22:09:07 23° SE 22:17:30 10° E visible
18 Jun - 00:03:02 10° SW 00:12:38 65° SSE 00:26:22 10° ENE visible
18 Jun - 02:06:57 10° W 02:18:47 86° N 02:34:03 10° E visible
18 Jun - 04:12:19 10° WNW 04:26:10 89° SSW 04:41:14 10° ESE visible
18 Jun - 06:18:29 10° WNW 06:32:47 57° SW 06:46:08 10° SE visible
18 Jun - 08:27:23 10° W 08:37:17 22° SW 08:46:11 10° S daylight
18 Jun - 21:30:15 10° SSE 21:35:32 18° SE 21:42:05 10° E daylight
18 Jun - 23:29:41 10° SW 23:38:36 59° SSE 23:51:34 10° ENE visible
19 Jun - 01:33:10 10° W 01:44:19 88° N 01:59:19 10° E visible
19 Jun - 03:38:14 10° W 03:51:32 89° NNE 04:06:48 10° ESE visible
19 Jun - 05:44:05 10° WNW 05:58:21 62° SSW 06:12:16 10° SE visible
19 Jun - 07:52:09 10° W 08:03:15 26° SW 08:13:21 10° S daylight
19 Jun - 20:58:27 10° SSE 21:02:03 13° SE 21:06:13 10° E daylight
19 Jun - 22:56:26 10° SW 23:04:40 52° SE 23:16:45 10° ENE visible
20 Jun - 00:59:29 10° WSW 01:09:55 90° NNW 01:24:33 10° E visible
20 Jun - 03:04:16 10° W 03:16:56 87° N 03:32:15 10° E visible
20 Jun - 05:09:49 10° WNW 05:23:51 66° SSW 05:38:16 10° SE visible
20 Jun - 07:17:11 10° W 07:29:08 30° SW 07:40:14 10° S daylight
20 Jun - 22:23:18 10° SSW 22:30:52 45° SE 22:41:55 10° ENE visible
21 Jun - 00:25:53 10° WSW 00:35:37 87° SSE 00:49:45 10° ENE visible
21 Jun - 02:30:23 10° W 02:42:21 85° N 02:57:37 10° E visible
21 Jun - 04:35:39 10° WNW 04:49:19 71° SSW 05:04:08 10° SE visible
21 Jun - 06:42:25 10° W 06:54:55 35° SW 07:06:54 10° SSE daylight
21 Jun - 21:50:16 10° SSW 21:57:10 38° SE 22:07:04 10° ENE daylight
21 Jun - 23:52:22 10° WSW 00:01:26 83° SSE 00:14:57 10° ENE visible
22 Jun - 01:56:35 10° W 02:07:51 84° N 02:22:54 10° E visible
22 Jun - 04:01:35 10° WNW 04:14:46 75° SSW 04:29:51 10° ESE visible
22 Jun - 06:07:51 10° WNW 06:20:39 39° SW 06:33:23 10° SSE visible
22 Jun - 08:23:45 10° WSW 08:24:43 10° SW 08:25:40 10° SW daylight
22 Jun - 21:17:22 10° SSW 21:23:34 31° SE 21:32:13 10° E daylight
22 Jun - 23:18:56 10° WSW 23:27:22 78° SSE 23:40:10 10° ENE visible
23 Jun - 01:22:51 10° W 01:33:25 84° N 01:48:07 10° E visible
23 Jun - 03:27:37 10° WNW 03:40:14 79° SSW 03:55:27 10° ESE visible
23 Jun - 05:33:26 10° WNW 05:46:19 43° SW 05:59:40 10° SSE visible
23 Jun - 07:44:50 10° WSW 07:50:43 13° SW 07:56:29 10° SSW daylight
23 Jun - 20:44:37 10° S 20:50:03 25° SE 20:57:20 10° E daylight
23 Jun - 22:45:35 10° WSW 22:53:24 73° SSE 23:05:24 10° ENE visible
24 Jun - 00:49:12 10° W 00:59:05 83° N 01:13:18 10° E visible
24 Jun - 02:53:44 10° WNW 03:05:44 82° SSW 03:20:55 10° ESE visible
24 Jun - 04:59:09 10° WNW 05:11:56 48° SW 05:25:49 10° SSE visible
24 Jun - 07:08:44 10° W 07:16:40 17° SW 07:24:31 10° SSW daylight
24 Jun - 20:12:06 10° S 20:16:36 19° SE 20:22:20 10° E daylight
24 Jun - 22:12:18 10° SW 22:19:32 66° SSE 22:30:40 10° ENE visible
25 Jun - 00:15:38 10° W 00:24:49 84° N 00:38:27 10° E visible
25 Jun - 02:19:56 10° WNW 02:31:17 86° SSW 02:46:18 10° ESE visible
25 Jun - 04:25:01 10° WNW 04:37:32 52° SW 04:51:48 10° SE visible
25 Jun - 06:33:20 10° W 06:42:33 20° SW 06:51:53 10° S visible
25 Jun - 19:39:57 10° SSE 19:43:13 14° SE 19:47:04 10° E daylight
25 Jun - 21:39:05 10° SW 21:45:47 58° SSE 21:55:59 10° ENE daylight
